Regional Weather Roundup
Issued by NWS Upton, NY

Current Version | Previous Version | Text Only | Print | Product List | Glossary On
Versions: 1 2 3 4 5 6 7 8 9 10 11 12 13 14 15 16 17 18 19 20 21 22 23 24 25 26 27 28 29 30 31 32 33 34 35 36 37 38 39 40 41 42 43 44 45 46 47 48 49 50
000 ASUS41 KOKX 240905 RWROKX REGIONAL WEATHER ROUNDUP NATIONAL WEATHER SERVICE NEW YORK NY 400 AM EST WED DEC 24 2014 NOTE: "FAIR" INDICATES FEW OR NO CLOUDS BELOW 12,000 FEET WITH NO SIGNIFICANT WEATHER AND/OR OBSTRUCTIONS TO VISIBILITY. NYZ071-072-176-178-NJZ106-104-241000- NEW YORK CITY METRO AREA CITY SKY/WX TMP DP RH WIND PRES REMARKS CENTRAL PARK CLOUDY 44 43 96 E7 30.06F FOG LAGUARDIA APRT DRZL/FOG 44 43 96 NE7 30.04F VSB 1/8 KENNEDY INTL FOG 47 45 93 NE6 30.05S VSB 1/2 NEWARK/LIBERTY FOG 46 46 100 NE5 30.04F VSB 3/4 BRNX BOT. GARD N/A 45 43 93 N2 30.06R TETERBORO FOG 45 45 100 CALM 30.02F VSB 1 $$ NYZ177-179-078>081-241000- LONG ISLAND NEW YORK CITY SKY/WX TMP DP RH WIND PRES REMARKS FARMINGDALE CLOUDY 45 44 97 NE6 30.04F FOG ISLIP CLOUDY 46 45 96 NE3 30.03F FOG SHIRLEY CLOUDY 47 46 97 CALM 30.05S FOG WESTHAMPTON CLOUDY 47 46 97 NE8 30.05F FOG MONTAUK POINT N/A 48 46 93 NE8 30.05F $$ NYZ052-065-067-241000- HUDSON VALLEY CITY SKY/WX TMP DP RH WIND PRES REMARKS WHITE PLAINS DRZL/FOG 45 44 97 VRB3 30.03S VSB 3/4 NEWBURGH NOT AVBL MONTGOMERY FOG 42 41 96 CALM 30.03S VSB 1 POUGHKEEPSIE CLOUDY 42 41 96 CALM 30.04R FOG ALBANY CLOUDY 38 35 89 N3 30.04F FOG $$ NJZ001-105-106-008-010-013-015-019>022-104-241000- NEW JERSEY CITY SKY/WX TMP DP RH WIND PRES REMARKS NEWARK/LIBERTY FOG 46 46 100 NE5 30.04F VSB 3/4 TETERBORO FOG 45 45 100 CALM 30.02F VSB 1 CALDWELL FOG 44 44 100 NE5 30.02F VSB 1 MORRISTOWN FOG 46 45 93 CALM 30.03F VSB 1 SOMERVILLE CLOUDY 46 44 93 NE5 30.00F FOG SUSSEX CLOUDY 42 42 100 CALM 30.02F FOG ANDOVER NOT AVBL TRENTON LGT RAIN 45 44 97 E6 30.01F VSB 1/2 MILLVILLE LGT RAIN 49 48 97 E6 29.99F ATLANTIC CITY LGT RAIN 47 47 100 E8 30.00F VSB 3/4 WRIGHTSTOWN LGT RAIN 46 46 100 E6 29.98F FOG TOMS RIVER CLOUDY 46 46 100 E5 30.02F VSB 1/4 BELMAR CLOUDY 46 41 81 E5 30.02F VSB 1/4 $$ PAZ047>061-062-071-241000- EASTERN PENNSYLVANIA CITY SKY/WX TMP DP RH WIND PRES REMARKS PHILADELPHIA LGT RAIN 48 45 89 E7 30.00F FOG ALLENTOWN LGT RAIN 44 42 93 NE8 30.01F FOG SCRANTON CLOUDY 47 42 83 E5 29.97F $$ CTZ002-004>006-009-010-012-RIZ004-006-007-MAZ004-011-015-241000- SOUTHERN NEW ENGLAND IN CT CITY SKY/WX TMP DP RH WIND PRES REMARKS BRADLEY INTL CLOUDY 41 38 89 N9 30.07F FOG HARTFORD CLOUDY 40 39 97 VRB5 30.07F FOG DANBURY CLOUDY 43 40 89 NE7 30.03F FOG WTRBRY/OXFORD CLOUDY 41 36 81 E6 30.05F VSB 1 BRIDGEPORT CLOUDY 45 43 93 NE10 30.03F MERIDEN CLOUDY 41 39 93 N6 30.07F FOG NEW HAVEN CLOUDY 45 41 86 N10 30.04F CHESTER CLOUDY 43 43 100 CALM 30.06S FOG GROTON CLOUDY 47 46 97 NE12 30.04F WILLIMANTIC CLOUDY 43 39 86 NE9 30.06F IN RI CITY SKY/WX TMP DP RH WIND PRES REMARKS PROVIDENCE CLOUDY 42 41 96 N10 30.08F FOG BLOCK ISLAND CLOUDY 46 43 87 NE10G17 30.04F VSB 1/2 WESTERLY CLOUDY 47 46 97 N8 30.05F FOG IN MA CITY SKY/WX TMP DP RH WIND PRES REMARKS BOSTON LGT RAIN 42 41 96 N12 30.12F VSB 3/4 WORCESTER FOG 36 36 100 NE10G18 30.07F VSB 1/2 WCI 28 WESTFIELD CLOUDY 40 38 93 N13 30.08F WCI 32 PROVINCETOWN CLOUDY 46 46 100 NE12 30.09R NANTUCKET CLOUDY 50 48 93 NE9 30.04R FOG $$ ANZ330-335-338-340-345-350-353-355-241000- COASTAL MARINE OBSERVATIONS STATION/POSITION TIME SKY/WX TEMP WIND PRES VSBY WAVE AIR SEA DIR/SP/G HT/PER (UTC) (F) (DEG/KT/KT) (MB) (MI) (FT/S) NY HARB ENTRANCE 0900 46 45 50/ 6/ 8 1017.5 5/ 8 4S FIRE IS 0900 47 N/A 6/ 8 20S FIRE ISLAND 0800 49 50 1017.6 6/ 8 23SW MTP 0900 N/A 7/ 8 HUDSON CANYON 0900 53 54 50/ 6/ 6 1016.6 7/ 8 EXECUTION ROCKS 0900 43 42 80/ 4/ 6 N/A WESTERN LI SOUND 0900 44 110/ 6/ 6 N/A 1 CENTRAL LI SOUND 0800 43 44 20/ 6/ 6 N/A 1 EASTERN LI SOUND NOT AVBL ROBBINS REEF 0900 1015.9 $$ >>>>>>>>>>>>>>>>>>>>>>>>>>>> KEY <<<<<<<<<<<<<<<<<<<<<<<<<<< > < > SKY/WX - SKY CONDITION/PRESENT WEATHER < > TMP - TEMPERATURE IN FAHRENHEIT < > DP - DEWPOINT IN FAHRENHEIT < > RH - RELATIVE HUMIDITY IN PERCENT < > WIND - DIRECTION AND SPEED IN MPH < > PRES - MEAN SEA LEVEL PRESSURE IN INCHES OF HG < > WCI - WIND CHILL INDEX < > VSB - VISIBILITY IN MILES < > HX - HEAT INDEX < > TC - TEMPERATURE IN CELSIUS < > VRB - VARIABLE WIND DIRECTION < > < >>>>>>>>>>>>>>>>>>>>>>>>>>>> KEY <<<<<<<<<<<<<<<<<<<<<<<<<<<

USA.gov is the U.S. government's official web portal to all federal, state and local government web resources and services.